Overview Statistics Trail Chart Weather Telemetry Raw packets
 

This is the latest recevied weather packets stored in our database for station/object K5BOU. If no packets are shown the sender has not sent any weather packets the latest 10 day(s).

<< 31 32 33 34 35 36 37 >>
Time Temp. Humidity Pressure Rain* Wind** Luminosity Snow
1788449288 30° C 91% 1012.6 hPa 0 mm - 375 W/m² -
1788448983 30° C 91% 1012.6 hPa 0 mm - 260 W/m² -
1788448678 30.56° C 92% 1013 hPa 0 mm - 615 W/m² -
1788448374 30° C 91% 1012.9 hPa 0 mm - 240 W/m² -
1788448074 30° C 93% 1012.4 hPa 0 mm - 252 W/m² -
1788447768 30° C 94% 1012.7 hPa 0 mm - 234 W/m² -
1788447464 29.44° C 94% 1012.7 hPa 0 mm - 265 W/m² -
1788447159 29.44° C 96% 1012.7 hPa 0 mm - 386 W/m² -
1788446857 28.89° C 96% 1012.8 hPa 0 mm - 225 W/m² -
1788446553 28.89° C 97% 1012.8 hPa 0 mm - 210 W/m² -
1788446249 28.89° C 97% 1013 hPa 0 mm - 160 W/m² -
1788445945 28.89° C 98% 1012.8 hPa 0 mm - 152 W/m² -
1788445640 28.33° C 98% 1012.9 hPa 0 mm - 135 W/m² -
1788445337 28.33° C 98% 1012.9 hPa 0 mm - 130 W/m² -
1788445032 28.33° C 98% 1013 hPa 0 mm - 158 W/m² -
1788444727 28.33° C 99% 1012.7 hPa 0 mm - 146 W/m² -
1788444423 27.78° C 99% 1013 hPa 0 mm - 149 W/m² -
1788444118 27.78° C 99% 1012.9 hPa 0 mm - 137 W/m² -
1788443813 27.22° C 99% 1012.6 hPa 0 mm - 133 W/m² -
1788443508 27.22° C 99% 1012.8 hPa 0 mm - 120 W/m² -
1788443207 27.22° C 99% 1012.9 hPa 0 mm - 111 W/m² -
1788442903 27.22° C 99% 1013 hPa 0 mm - 98 W/m² -
1788442601 27.22° C 99% 1012.9 hPa 0 mm - 78 W/m² -
1788442297 26.67° C 99% 1013 hPa 0 mm - 61 W/m² -
1788441996 26.67° C 99% 1012.7 hPa 0 mm - 55 W/m² -

* Rain latest hour (hover to see other rain measurements)
** Current wind speed in m/s (hover to see current wind gust speed)